Orbital Elements at Epoch 2459200.5 (2020-Dec-17.0) TDB
Reference: JPL 28 (heliocentric ecliptic J2000)
Element | Value | Uncertainty (1-sigma) | Units |
e | .1202299655117915 | 3.9077e-08 | |
a | 2.286786924438317 | 1.004e-08 | au |
q | 2.011846611380283 | 8.9307e-08 | au |
i | 5.918731675814066 | 4.5626e-06 | deg |
node | 40.08840490814582 | 3.7468e-05 | deg |
peri | 200.9800510110678 | 4.1531e-05 | deg |
M | 288.8544897125943 | 1.9603e-05 | deg |
tp | 2459450.121492331221 (2021-Aug-23.62149233) | 6.9054e-05 | TDB |
period | 1263.097795998907 3.46 | 8.318e-06 2.277e-08 | d yr |
n | .2850135604229266 | 1.8769e-09 | deg/d |
Q | 2.561727237496352 | 1.1247e-08 | au |
|
| | Orbit Determination Parameters
Additional Information
|